#timestamp,LO_Frequency,Hit,StdDev 
1569945615.7,286047000.2,N
1569945635.6,286047004.1,N
1569945655.4,286047000.5,N
1569945675.2,286046998.3,N
1569945695.1,286047000.3,N
1569945696.0,286047000.3,N
1569945715.8,286047000.9,N
1569945735.6,286047002.1,N
1569945755.5,286047000.0,N
1569945775.3,286047002.4,N
1569945795.2,286047000.0,N
1569945815.9,286047000.6,N
1569945835.7,286047000.7,N
1569945855.6,286046998.4,N
1569945875.4,286047002.3,N
1569945895.2,286047000.3,N
1569945915.1,286047000.9,N
1569945916.0,286047000.9,N
1569945935.8,286046998.1,N
1569945955.7,286046999.3,N
1569945975.5,286046999.0,N
1569945995.3,286046998.1,N
1569946015.2,286047002.2,N
1569946035.0,286047000.1,N
1569946035.9,286047000.1,N
1569946055.7,286047000.9,N
1569946075.6,286047000.3,N
1569946095.4,286047002.6,N
1569946115.3,286046999.8,N
1569946135.1,286047000.4,N
1569946136.0,286047000.4,N
1569946155.8,286047003.8,N
1569946175.7,286047002.4,N
1569946195.5,286047000.0,N
1569946215.3,286047002.1,N
1569946235.2,286047005.1,Y
1569946255.0,286047003.5,P
1569946255.9,286047003.5,N
1569946275.8,286047001.4,N
1569946295.6,286047002.6,N
1569946315.4,286047001.4,N
1569946335.3,286047002.6,N
1569946355.1,286047000.6,N
1569946375.9,286047002.6,N
1569946395.7,286047001.5,N
1569946415.5,286047005.6,Y
1569946435.4,286047004.1,P
1569946455.2,286047002.8,N
1569946475.0,286047002.4,N
1569946475.9,286047002.4,Y
1569946495.8,286046997.2,P
1569946515.6,286046997.6,N
1569946535.5,286046996.6,N
1569946555.3,286046998.0,N
1569946575.1,286046996.9,N
1569946595.9,286046994.9,N
1569946615.7,286046995.1,N
1569946635.5,286046996.1,N
1569946655.4,286046994.7,N
1569946675.2,286046992.1,Y
1569946695.1,286046996.9,P
1569946696.0,286046996.9,P
1569946715.8,286047000.3,P
1569946735.6,286047000.0,N
1569946755.5,286046997.0,N
1569946775.3,286046997.5,N
1569946795.1,286046997.7,N
1569946815.9,286046997.8,N
1569946835.7,286046997.2,N
1569946855.6,286046997.8,N
1569946875.4,286046997.6,N
1569946895.2,286046997.0,N
1569946915.1,286046998.3,N
1569946916.0,286046998.3,N
1569946935.8,286046997.3,N
1569946955.6,286046997.9,N
1569946975.5,286046997.7,N
1569946995.3,286046996.2,Y
1569947015.2,286046998.6,P
1569947035.9,286047000.7,N
1569947055.7,286046998.4,N
1569947075.6,286046996.7,Y
1569947095.4,286046998.7,P
1569947115.2,286047000.7,P
1569947135.1,286046998.2,N
1569947136.0,286046998.2,N
1569947155.8,286046999.0,N
1569947175.7,286046998.8,N
1569947195.5,286046998.2,N
1569947215.3,286047000.6,N
1569947235.2,286047003.9,Y
1569947255.0,286046999.8,P
1569947255.9,286046999.8,N
1569947275.8,286047002.8,P
1569947295.6,286046999.9,N
1569947315.4,286047000.6,N
1569947335.3,286047001.2,N
1569947355.1,286046996.7,N
1569947356.0,286046996.7,N
1569947375.8,286046997.1,N
1569947395.7,286046996.6,N
1569947415.5,286046996.9,N
1569947435.4,286046996.6,N
1569947455.2,286046997.8,N
1569947475.0,286046997.6,N
1569947475.9,286046997.6,N
1569947495.8,286046996.6,N
1569947515.6,286046998.8,N
1569947535.4,286046997.1,N
1569947555.3,286046997.9,N
1569947575.1,286046996.7,N
1569947595.9,286046996.8,N
1569947615.7,286046996.6,N
1569947635.5,286046998.8,N
1569947655.4,286046999.5,N
1569947675.2,286046999.2,N
1569947695.0,286046999.0,N
1569947695.9,286046999.0,N
1569947715.8,286046998.9,N
1569947735.6,286046999.3,N
1569947755.5,286046999.4,N
1569947775.3,286046997.0,N
1569947795.1,286046997.1,N
1569947815.9,286046996.7,N
1569947835.7,286046997.0,N
1569947855.5,286046996.8,N
1569947875.4,286046997.2,N
1569947895.2,286046997.3,N
1569947915.1,286046997.4,N
1569947916.0,286046997.4,N
1569947935.8,286046997.1,N
1569947955.6,286046996.6,Y
1569947975.5,286046999.0,P
1569947995.3,286046998.4,N
1569948015.1,286047002.6,P
1569948035.9,286047001.4,N
1569948055.7,286047001.5,N
1569948075.6,286047001.5,N
1569948095.4,286047001.6,N
1569948115.2,286047003.6,N
1569948135.1,286047001.7,N
1569948136.0,286047001.7,N
1569948155.8,286047004.4,N
1569948175.6,286047001.7,N
1569948195.5,286047001.5,N
1569948215.3,286047003.4,N
1569948235.2,286047003.4,N
1569948255.9,286047007.2,Y
1569948275.7,286047002.0,P
1569948295.6,286047001.8,P
1569948315.4,286047003.8,P
1569948335.3,286047004.1,Y
1569948355.1,286047002.1,P
1569948356.0,286047002.1,P
1569948375.8,286047002.2,P
1569948395.7,286047004.4,Y
1569948415.5,286047002.4,P
1569948435.3,286047001.0,P
1569948455.2,286046999.1,N
1569948475.0,286046998.2,N
1569948475.9,286046998.2,N
1569948495.8,286046998.6,N
1569948515.6,286047000.7,N
1569948535.4,286047000.8,N
1569948555.3,286046998.1,N
1569948575.1,286046998.4,N
1569948595.8,286047000.5,N
1569948615.7,286047000.2,N
1569948635.5,286046998.4,N
1569948655.4,286046999.2,N
1569948675.2,286046996.5,N
1569948695.0,286046998.8,N
1569948695.9,286046998.8,N
1569948715.8,286046999.2,N
1569948735.6,286047002.1,N
1569948755.4,286047001.2,N
1569948775.3,286046998.3,N
1569948795.1,286046998.4,N
1569948815.9,286046998.5,N
1569948835.7,286046998.8,N
1569948855.5,286046998.9,N
1569948875.4,286047000.6,N
1569948895.2,286046998.1,N
1569948915.0,286047000.3,N
1569948915.9,286047000.3,N
1569948935.8,286047000.9,N
1569948955.6,286047000.5,N
1569948975.5,286047002.6,N
1569948995.3,286047000.3,N
1569949015.1,286047002.2,N
1569949035.9,286047001.6,N
1569949055.7,286047000.8,N
1569949075.5,286047001.2,N
1569949095.4,286047000.1,N
1569949115.2,286047001.3,N
1569949135.1,286047004.0,N
1569949136.0,286047004.0,N
1569949155.8,286047001.5,N
1569949175.6,286047003.8,N
1569949195.5,286047003.5,N
